Whiteman AFB, MO

8:45 PM CST on November 14, 2019 (GMT -0600)
Whiteman Air Force Base

Weather History for KSZL - May, 2019

Change the Weather History Date:

Wednesday, May 15, 2019

  Actual Average Record
Temperature  
Mean Temperature 70 °F -  
Max Temperature 83 °F 73 °F 86 °F (2001)
Min Temperature 60 °F 54 °F 37 °F (2016)
Cooling Degree Days 6    
Growing Degree Days 20 (Base 50)    
Moisture  
Dew Point 64 °F    
Average Humidity 78    
Maximum Humidity 100    
Minimum Humidity 49    
Precipitation  
Precipitation 0.00 in - - ()
Sea Level Pressure  
Sea Level Pressure 29.86 in    
Wind  
Wind Speed 5 mph (South)    
Max Wind Speed 8 mph    
Max Gust Speed -    
Visibility 10 miles    
Events      
Averages and records for this station are not official NWS values.
T = Trace of Precipitation, MM = Missing Value Source: NWS Daily Summary

Daily Weather History Graph

Daily Weather History Graph

Search for Another Location

Airport or City:

Astronomy

May. 15, 2019 Rise Set
Actual Time 6:02 AM CDT 8:19 PM CDT
Civil Twilight 5:32 AM CDT 8:49 PM CDT
Nautical Twilight 4:55 AM CDT 9:26 PM CDT
Astronomical Twilight 4:15 AM CDT 10:06 PM CDT
Moon 4:53 PM CDT 4:25 AM CDT
Length of Visible Light 15h 16m
Length of Day
14h 17m
Waxing Gibbous, 87% of the Moon is Illuminated
May 15
Waxing Gibbous
May 18
Full
May 26
Last Quarter
Jun 3
New
Jun 10
First Quarter

Hourly Weather History & Observations

Time (CDT) Temp. Heat Index Dew Point Humidity Pressure Visibility Wind Dir Wind Speed Gust Speed Precip Events Conditions
12:56 AM 66.0 °F - 63.0 °F 90% 29.83 in 10.0 mi South 8.1 mph - N/A   Scattered Clouds
1:56 AM 64.0 °F - 63.1 °F 97% 29.82 in 10.0 mi SSW 4.6 mph - N/A   Partly Cloudy
2:56 AM 66.7 °F - 63.0 °F 88% 29.82 in 10.0 mi West 6.9 mph - N/A   Scattered Clouds
3:56 AM 66.0 °F - 62.4 °F 88% 29.82 in 10.0 mi WSW 8.1 mph - N/A   Clear
4:56 AM 64.6 °F - 62.2 °F 92% 29.82 in 10.0 mi SW 5.8 mph - N/A   Clear
5:56 AM 61.5 °F - 61.5 °F 100% 29.84 in 10.0 mi Calm Calm - N/A   Scattered Clouds
6:56 AM 60.1 °F - 60.1 °F 100% 29.86 in 10.0 mi Calm Calm - N/A   Scattered Clouds
7:56 AM 67.3 °F - 63.3 °F 87% 29.88 in 10.0 mi WSW 4.6 mph - N/A   Scattered Clouds
8:55 AM 71.4 °F - 64.9 °F 80% 29.90 in 10.0 mi NNW 3.5 mph - N/A   Partly Cloudy
9:57 AM 75.0 °F - 66.6 °F 75% 29.91 in 10.0 mi East 3.5 mph - N/A   Scattered Clouds
10:57 AM 76.6 °F - 65.7 °F 69% 29.91 in 10.0 mi Calm Calm - N/A   Scattered Clouds
11:56 AM 78.4 °F - 65.1 °F 63% 29.91 in 10.0 mi ESE 4.6 mph - N/A   Mostly Cloudy
12:56 PM 80.4 °F 81.1 °F 59.5 °F 49% 29.91 in 10.0 mi East 3.5 mph - N/A   Mostly Cloudy
1:56 PM 81.5 °F 82.4 °F 61.5 °F 51% 29.90 in 10.0 mi Calm Calm - 0.00 in   Mostly Cloudy
2:56 PM 81.3 °F 82.3 °F 61.9 °F 52% 29.88 in 10.0 mi Calm Calm - N/A   Mostly Cloudy
3:56 PM 81.1 °F 82.7 °F 63.9 °F 56% 29.86 in 10.0 mi South 4.6 mph - N/A   Mostly Cloudy
4:56 PM 80.2 °F 82.0 °F 64.6 °F 59% 29.86 in 10.0 mi SSW 4.6 mph - N/A   Mostly Cloudy
5:56 PM 78.8 °F - 62.8 °F 58% 29.86 in 10.0 mi SW 6.9 mph - N/A   Mostly Cloudy
6:56 PM 79.3 °F - 67.5 °F 67% 29.86 in 10.0 mi Calm Calm - N/A   Scattered Clouds
7:56 PM 76.8 °F - 65.5 °F 68% 29.84 in 10.0 mi Calm Calm - N/A   Partly Cloudy
8:56 PM 70.7 °F - 65.7 °F 84% 29.86 in 10.0 mi ESE 3.5 mph - N/A   Partly Cloudy
9:56 PM 69.1 °F - 66.9 °F 93% 29.86 in 10.0 mi SE 3.5 mph - N/A   Clear
10:56 PM 66.7 °F - 66.7 °F 100% 29.86 in 10.0 mi SE 4.6 mph - N/A   Clear
11:56 PM 64.6 °F - 64.6 °F 100% 29.86 in 10.0 mi SSE 4.6 mph - N/A   Clear